Flag for Morocco Weather past 2 weeks in Tangier, Morocco

Now
59 °F

Sprinkles. Broken clouds.


Feels Like: 55 °F
Forecast: 54 / 69 °F
Wind: 21 mph from Southwest

Location: Tanger Aerodrome


UV Index: 5 (Moderate)

Visibility: 3 mi


Pressure: 29.77 "Hg

Humidity: 82%

Dew point: 54 °F

Location of TangierLocation

Historic Weather in Tangier

°F

Tangier temperature yesterday

Maximum temperature yesterday: 68 °F (at 2:30 PM)
Minimum temperature yesterday: 61 °F (at 12:00 PM)
Average temperature yesterday: 64 °F

Past Weeks' High & Low Weather Summary

 TemperatureHumidityPressure
High81 °F (Apr 8, 2:00 PM)94% (Apr 11, 9:00 PM)30.12 "Hg (Apr 11, 9:00 PM)
Low50 °F (Apr 13, 12:30 AM)38% (Apr 9, 3:30 PM)29.71 "Hg (Apr 20, 6:00 PM)
Average65 °F72%29.98 "Hg
* Reported Apr 6 11:00 AM — Apr 21 11:00 AM, Tangier, Weather by CustomWeather, © 2014

Note: Actual official high and low records may vary slightly from our data, if they occured in-between our weather recording intervals... More about our weather records

Advertising

Historic Weather Conditions — Data for Previous 24 hours

 ConditionsComfort  
Time TempWeatherWind HumidityBarometerVisibility
11:00 AM
Apr 21
61 °FBroken clouds.14 mph88%29.74 "Hg4 mi
10:30 AM61 °FScattered clouds.9 mph88%29.77 "Hg4 mi
10:00 AM59 °FScattered clouds.14 mph88%29.77 "Hg4 mi
9:30 AM59 °FSprinkles. Scattered clouds.13 mph88%29.74 "Hg3 mi
9:00 AM59 °FScattered clouds.13 mph88%29.74 "Hg4 mi
8:30 AM61 °FScattered clouds.12 mph83%29.74 "Hg4 mi
8:00 AM59 °FScattered clouds.13 mph82%29.74 "Hg4 mi
7:30 AM59 °FBroken clouds.14 mph88%29.74 "Hg4 mi
7:00 AM61 °FBroken clouds.12 mph83%29.74 "Hg4 mi
6:30 AM61 °FBroken clouds.14 mph83%29.74 "Hg4 mi
6:00 AM59 °FBroken clouds.14 mph88%29.71 "Hg4 mi
5:30 AMN/APartly cloudy.N/AN/AN/A4 mi
5:00 AMN/APartly cloudy.N/AN/AN/A4 mi
1:30 AM61 °FPassing clouds.16 mph83%29.77 "Hg4 mi
1:00 AM61 °FPassing clouds.15 mph83%29.77 "Hg4 mi
12:30 AM63 °FPassing clouds.15 mph77%29.77 "Hg4 mi
12:00 AM63 °FPassing clouds.15 mph77%29.77 "Hg4 mi
11:30 PM
Apr 20
61 °FPassing clouds.17 mph83%29.77 "Hg4 mi
11:00 PM61 °FPassing clouds.17 mph83%29.77 "Hg4 mi
10:00 PM63 °FPassing clouds.17 mph77%29.77 "Hg4 mi
9:30 PM63 °FPassing clouds.18 mph77%29.77 "Hg4 mi
9:00 PM63 °FPassing clouds.16 mph83%29.74 "Hg4 mi
8:30 PM63 °FPassing clouds.17 mph83%29.74 "Hg4 mi
8:00 PM63 °FPassing clouds.18 mph83%29.74 "Hg4 mi
7:30 PM63 °FPassing clouds.18 mph83%29.74 "Hg5 mi
7:00 PM63 °FPassing clouds.20 mph77%29.71 "Hg5 mi
6:30 PM63 °FPartly sunny.18 mph83%29.74 "Hg5 mi
6:00 PM61 °FPartly sunny.18 mph83%29.71 "Hg5 mi
5:30 PM64 °FSprinkles. Partly sunny.22 mph73%29.74 "Hg3 mi
5:00 PM64 °FPartly sunny.18 mph78%29.74 "Hg4 mi
4:30 PM66 °FPartly sunny.20 mph73%29.74 "Hg5 mi
4:00 PMN/APartly sunny.21 mphN/A29.74 "Hg5 mi
3:00 PM68 °FPartly sunny.25 mph69%29.77 "Hg5 mi
2:30 PM68 °FPartly sunny.24 mph69%29.77 "Hg4 mi
2:00 PM66 °FPartly sunny.24 mph78%29.77 "Hg3 mi
1:30 PM66 °FPartly sunny.28 mph78%29.77 "Hg3 mi
1:00 PM66 °FBroken clouds.22 mph78%29.77 "Hg3 mi
12:30 PM64 °FBroken clouds.18 mph83%29.80 "Hg3 mi
12:00 PM61 °FLight rain. Fog.16 mph83%29.80 "Hg2 mi
Weather by CustomWeather, © 2014

See weather overview